Regional Weather Roundup
Issued by NWS Kansas City/Pleasant Hill, MO

Home | Current Version | Previous Version | Text Only | Print | Product List | Glossary On
Versions: 1 2 3 4 5 6 7 8 9 10 11 12 13 14 15 16 17 18 19 20 21 22 23 24 25 26 27 28 29 30 31 32 33 34 35 36 37 38 39 40 41 42 43 44 45 46 47 48 49 50
000
ASUS43 KEAX 020210
RWREAX

WEATHER ROUNDUP FOR EASTERN KANSAS AND NORTHWEST MISSOURI
NATIONAL WEATHER SERVICE KANSAS CITY/PLEASANT HILL MO
900 PM CDT TUE SEP 01 2015

KSZ040-057-103>105-MOZ028-029-037-043-020300-
...KANSAS CITY METROPOLITAN AREA...

CITY           SKY/WX    TMP DP  RH WIND       PRES   REMARKS
K.C. INTL      CLEAR     75  67  76 S9        30.00S
K.C. DOWNTOWN  CLEAR     82  67  60 S7        30.00R
LEES SUMMIT    CLEAR     79  65  62 S6        30.03R
OLATHE - IXD   CLEAR     74  68  81 S7        30.02R
OLATHE - OJC   CLEAR     76  68  76 S5        30.02R
LAWRENCE       CLEAR     75  67  76 SE6       30.00R

$$

MOZ001>008-011>017-020>025-030>033-038>040-044>046-053-054-020300-
...NORTHERN AND CENTRAL MISSOURI...

CITY           SKY/WX    TMP DP  RH WIND       PRES   REMARKS
ST. JOSEPH     CLEAR     78  67  68 S10       29.97R
MOSBY          CLEAR     79  66  65 S3        30.00R
WARRENSBURG    CLEAR     77  66  69 SE6       30.02R
WHITEMAN AFB   CLEAR     76  67  73 S6        30.02R
CLINTON        DRIZZLE   77  70  78 CALM      30.04R
SEDALIA        CLEAR     79  69  71 S3        30.05R
WARSAW         NOT AVBL
CHILLICOTHE      N/A     77  71  82 S3        30.01R
KIRKSVILLE     CLEAR     74  69  85 S6        30.03R

$$

MOZ041-047>049-056>058-063>065-088>090-097-020300-
...EASTERN AND SOUTHERN MISSOURI...

CITY           SKY/WX    TMP DP  RH WIND       PRES   REMARKS
ST. LOUIS INTL PTCLDY    85  69  58 S5        30.07R
SPIRIT OF STL  CLEAR     79  73  82 S5        30.05R
COLUMBIA       CLEAR     75  69  81 SE6       30.05R
JEFFERSON CITY CLEAR     77  71  82 SE5       30.04R
ROLLA          CLEAR     77  70  79 S8        30.08R
OSAGE BEACH    CLEAR     79  66  65 SE3       30.06S
SPRINGFIELD    CLEAR     78  68  71 S7        30.07R
BRANSON        CLEAR     75  66  73 S5        30.09R
JOPLIN         CLEAR     78  65  63 S7        30.05R
WEST PLAINS    CLEAR     77  70  79 SE3       30.12R

$$

IAZ060-094-KSZ022-034>040-054-083-096-NEZ052-066-093-020300-
...KANSAS...SOUTHEAST NEBRASKA AND IOWA...

CITY           SKY/WX    TMP DP  RH WIND       PRES   REMARKS
TOPEKA         CLEAR     79  66  64 SE9       29.98R
MANHATTAN      PTCLDY    82  66  58 S13       29.93R
EMPORIA        CLEAR     77  66  68 SE12      29.99R
CHANUTE        CLEAR     76  69  79 SE8       30.01R
WICHITA        PTCLDY    83  67  58 SE16      29.96R
OMAHA          MOCLDY    81  68  64 SE14      29.90R
LINCOLN        MOCLDY    83  64  52 S14       29.88S
FALLS CITY     PTCLDY    77  67  71 SE9       29.94S
LAMONI         PTCLDY    78  69  73 S6        30.00R
DES MOINES     MOCLDY    80  69  69 S8        29.97R

$$



USA.gov is the U.S. government's official web portal to all federal, state and local government web resources and services.